Time,TemperatureF,DewpointF,PressureIn,WindDirection,WindDirectionDegrees,WindSpeedMPH,WindSpeedGustMPH,Humidity,HourlyPrecipIn,Conditions,Clouds,dailyrainin,SoftwareType,DateUTC
2013-01-19 00:00:00,26.6,24.6,29.74,SW,230,0.0,0.0,92,0.00,,,0.00,Wunderground v.1.15,2013-01-19 06:00:00,
2013-01-19 00:10:00,26.9,25.1,29.74,SW,230,0.0,0.0,93,0.00,,,0.00,Wunderground v.1.15,2013-01-19 06:10:00,
2013-01-19 00:15:00,26.9,25.1,29.73,SW,230,0.0,0.0,93,0.00,,,0.00,Wunderground v.1.15,2013-01-19 06:15:00,
2013-01-19 00:25:00,27.2,25.4,29.73,SW,227,0.0,0.0,93,0.00,,,0.00,Wunderground v.1.15,2013-01-19 06:25:00,
2013-01-19 00:30:00,27.5,25.7,29.72,SW,227,0.0,0.0,93,0.00,,,0.00,Wunderground v.1.15,2013-01-19 06:30:00,
2013-01-19 00:40:00,27.9,26.1,29.72,SW,224,0.0,0.0,93,0.00,,,0.00,Wunderground v.1.15,2013-01-19 06:40:00,
2013-01-19 00:45:00,28.1,26.3,29.71,SW,224,0.0,0.0,93,0.00,,,0.00,Wunderground v.1.15,2013-01-19 06:45:00,
2013-01-19 00:55:00,28.1,26.3,29.71,SW,224,0.0,0.0,93,0.00,,,0.00,Wunderground v.1.15,2013-01-19 06:55:00,
2013-01-19 01:00:00,28.1,26.3,29.71,SW,224,0.0,0.0,93,0.00,,,0.00,Wunderground v.1.15,2013-01-19 07:00:00,
2013-01-19 01:10:00,28.1,26.3,29.71,SW,224,0.0,0.0,93,0.00,,,0.00,Wunderground v.1.15,2013-01-19 07:10:00,
2013-01-19 01:15:00,28.1,26.3,29.71,SW,224,0.0,0.0,93,0.00,,,0.00,Wunderground v.1.15,2013-01-19 07:15:00,
2013-01-19 01:25:00,28.1,26.3,29.71,SW,224,0.0,0.0,93,0.00,,,0.00,Wunderground v.1.15,2013-01-19 07:25:00,
2013-01-19 01:35:00,27.9,26.1,29.71,SW,224,0.0,0.0,93,0.00,,,0.00,Wunderground v.1.15,2013-01-19 07:35:00,
2013-01-19 01:40:00,27.8,26.0,29.71,SW,224,0.0,0.0,93,0.00,,,0.00,Wunderground v.1.15,2013-01-19 07:40:00,
2013-01-19 01:45:00,27.5,25.7,29.71,SW,224,0.0,0.0,93,0.00,,,0.00,Wunderground v.1.15,2013-01-19 07:45:00,
2013-01-19 01:55:00,26.9,24.9,29.71,SW,224,0.0,0.0,92,0.00,,,0.00,Wunderground v.1.15,2013-01-19 07:55:00,
2013-01-19 02:05:00,27.0,25.2,29.71,SW,224,0.0,4.0,93,0.00,,,0.00,Wunderground v.1.15,2013-01-19 08:05:00,
2013-01-19 02:15:00,27.0,25.2,29.72,SW,224,1.0,1.0,93,0.00,,,0.00,Wunderground v.1.15,2013-01-19 08:15:00,
2013-01-19 02:25:00,27.0,25.2,29.72,SSW,198,0.0,1.0,93,0.00,,,0.00,Wunderground v.1.15,2013-01-19 08:25:00,
2013-01-19 02:30:00,27.0,25.2,29.71,South,181,1.0,1.0,93,0.00,,,0.00,Wunderground v.1.15,2013-01-19 08:30:00,
2013-01-19 02:40:00,27.5,25.7,29.71,South,174,3.0,4.0,93,0.00,,,0.00,Wunderground v.1.15,2013-01-19 08:40:00,
2013-01-19 02:45:00,27.6,25.8,29.70,SSE,167,4.0,7.0,93,0.00,,,0.00,Wunderground v.1.15,2013-01-19 08:45:00,
2013-01-19 02:55:00,28.1,26.3,29.70,SSE,168,2.0,4.0,93,0.00,,,0.00,Wunderground v.1.15,2013-01-19 08:55:00,
2013-01-19 03:00:00,28.1,26.3,29.69,South,171,1.0,1.0,93,0.00,,,0.00,Wunderground v.1.15,2013-01-19 09:00:00,
2013-01-19 03:10:00,27.9,25.9,29.69,South,172,1.0,4.0,92,0.00,,,0.00,Wunderground v.1.15,2013-01-19 09:10:00,
2013-01-19 03:20:00,27.9,25.9,29.69,South,176,3.0,4.0,92,0.00,,,0.00,Wunderground v.1.15,2013-01-19 09:20:00,
2013-01-19 03:30:00,27.8,25.8,29.67,SSE,168,6.0,6.0,92,0.00,,,0.00,Wunderground v.1.15,2013-01-19 09:30:00,
2013-01-19 03:40:00,27.5,25.2,29.67,South,174,0.0,0.0,91,0.00,,,0.00,Wunderground v.1.15,2013-01-19 09:40:00,
2013-01-19 03:45:00,27.5,25.5,29.70,South,172,0.0,0.0,92,0.00,,,0.00,Wunderground v.1.15,2013-01-19 09:45:00,
2013-01-19 03:55:00,27.2,24.9,29.70,NW,306,0.0,0.0,91,0.00,,,0.00,Wunderground v.1.15,2013-01-19 09:55:00,
2013-01-19 04:00:00,27.2,25.2,29.70,NW,306,0.0,0.0,92,0.00,,,0.00,Wunderground v.1.15,2013-01-19 10:00:00,
2013-01-19 04:10:00,26.9,24.9,29.70,SSW,208,0.0,0.0,92,0.00,,,0.00,Wunderground v.1.15,2013-01-19 10:10:00,
2013-01-19 04:20:00,26.7,24.7,29.69,SSW,208,0.0,0.0,92,0.00,,,0.00,Wunderground v.1.15,2013-01-19 10:20:00,
2013-01-19 04:30:00,26.6,24.6,29.69,SSW,208,0.0,0.0,92,0.00,,,0.00,Wunderground v.1.15,2013-01-19 10:30:00,
2013-01-19 04:40:00,26.6,24.6,29.69,SSW,208,0.0,0.0,92,0.00,,,0.00,Wunderground v.1.15,2013-01-19 10:40:00,
2013-01-19 04:45:00,26.3,24.3,29.69,SSW,208,0.0,0.0,92,0.00,,,0.00,Wunderground v.1.15,2013-01-19 10:45:00,
2013-01-19 04:55:00,25.8,23.8,29.69,SSW,208,0.0,0.0,92,0.00,,,0.00,Wunderground v.1.15,2013-01-19 10:55:00,
2013-01-19 05:00:00,25.7,23.7,29.68,SSW,208,0.0,0.0,92,0.00,,,0.00,Wunderground v.1.15,2013-01-19 11:00:00,
2013-01-19 05:05:00,25.7,24.0,29.68,SSW,208,0.0,0.0,93,0.00,,,0.00,Wunderground v.1.15,2013-01-19 11:05:00,
2013-01-19 06:50:00,26.1,24.4,29.70,SW,217,0.0,1.0,93,0.00,,,0.00,Wunderground v.1.15,2013-01-19 12:50:00,
2013-01-19 06:55:00,26.3,24.6,29.70,SW,217,1.0,2.0,93,0.00,,,0.00,Wunderground v.1.15,2013-01-19 12:55:00,
2013-01-19 07:00:00,26.6,24.8,29.70,SW,236,2.0,2.0,93,0.00,,,0.00,Wunderground v.1.15,2013-01-19 13:00:00,
2013-01-19 07:10:00,26.9,25.1,29.70,SW,236,3.0,3.0,93,0.00,,,0.00,Wunderground v.1.15,2013-01-19 13:10:00,
2013-01-19 07:20:00,27.0,25.0,29.70,West,265,2.0,2.0,92,0.00,,,0.00,Wunderground v.1.15,2013-01-19 13:20:00,
2013-01-19 07:30:00,27.6,25.6,29.71,WNW,296,3.0,4.0,92,0.00,,,0.00,Wunderground v.1.15,2013-01-19 13:30:00,
2013-01-19 07:40:00,28.5,26.5,29.71,WNW,285,3.0,3.0,92,0.00,,,0.00,Wunderground v.1.15,2013-01-19 13:40:00,
2013-01-19 07:45:00,29.0,26.7,29.71,WNW,299,3.0,4.0,91,0.00,,,0.00,Wunderground v.1.15,2013-01-19 13:45:00,
2013-01-19 07:55:00,30.3,27.7,29.71,NW,309,3.0,3.0,90,0.00,,,0.00,Wunderground v.1.15,2013-01-19 13:55:00,
2013-01-19 08:00:00,30.9,27.8,29.71,NW,320,3.0,9.0,88,0.00,,,0.00,Wunderground v.1.15,2013-01-19 14:00:00,
2013-01-19 08:10:00,31.9,27.6,29.71,WNW,288,5.0,5.0,84,0.00,,,0.00,Wunderground v.1.15,2013-01-19 14:10:00,
2013-01-19 08:20:00,32.1,27.5,29.71,WNW,285,3.0,6.0,83,0.00,,,0.00,Wunderground v.1.15,2013-01-19 14:20:00,
2013-01-19 08:25:00,32.1,27.2,29.71,NW,320,3.0,6.0,82,0.00,,,0.00,Wunderground v.1.15,2013-01-19 14:25:00,
2013-01-19 08:30:00,32.1,27.2,29.72,NW,316,3.0,6.0,82,0.00,,,0.00,Wunderground v.1.15,2013-01-19 14:30:00,
2013-01-19 08:40:00,32.2,27.0,29.72,NNW,339,3.0,4.0,81,0.00,,,0.00,Wunderground v.1.15,2013-01-19 14:40:00,
2013-01-19 08:50:00,32.4,27.2,29.73,NW,325,4.0,4.0,81,0.00,,,0.00,Wunderground v.1.15,2013-01-19 14:50:00,
2013-01-19 09:00:00,32.4,26.9,29.73,NW,319,5.0,5.0,80,0.00,,,0.00,Wunderground v.1.15,2013-01-19 15:00:00,
2013-01-19 09:10:00,32.5,27.0,29.73,NNW,344,4.0,4.0,80,0.00,,,0.00,Wunderground v.1.15,2013-01-19 15:10:00,
2013-01-19 09:15:00,32.5,27.0,29.75,West,280,4.0,6.0,80,0.00,,,0.00,Wunderground v.1.15,2013-01-19 15:15:00,
2013-01-19 09:25:00,32.5,27.0,29.75,WNW,299,4.0,6.0,80,0.00,,,0.00,Wunderground v.1.15,2013-01-19 15:25:00,
2013-01-19 09:30:00,32.5,27.0,29.76,WNW,298,3.0,3.0,80,0.00,,,0.00,Wunderground v.1.15,2013-01-19 15:30:00,
2013-01-19 09:40:00,32.4,27.2,29.76,NW,325,4.0,4.0,81,0.00,,,0.00,Wunderground v.1.15,2013-01-19 15:40:00,
2013-01-19 09:50:00,32.7,27.5,29.76,WNW,294,3.0,4.0,81,0.00,,,0.00,Wunderground v.1.15,2013-01-19 15:50:00,
2013-01-19 10:00:00,33.8,28.0,29.77,WNW,282,4.0,4.0,79,0.00,,,0.00,Wunderground v.1.15,2013-01-19 16:00:00,
2013-01-19 10:10:00,34.7,28.5,29.77,WNW,295,5.0,6.0,78,0.00,,,0.00,Wunderground v.1.15,2013-01-19 16:10:00,
2013-01-19 10:20:00,35.5,29.0,29.77,NW,319,6.0,6.0,77,0.00,,,0.00,Wunderground v.1.15,2013-01-19 16:20:00,
2013-01-19 10:30:00,36.2,29.4,29.77,NW,323,6.0,6.0,76,0.00,,,0.00,Wunderground v.1.15,2013-01-19 16:30:00,
2013-01-19 10:40:00,36.3,29.1,29.77,WNW,289,6.0,6.0,75,0.00,,,0.00,Wunderground v.1.15,2013-01-19 16:40:00,
2013-01-19 10:50:00,36.6,29.4,29.77,WNW,299,7.0,7.0,75,0.00,,,0.00,Wunderground v.1.15,2013-01-19 16:50:00,
2013-01-19 11:00:00,36.8,29.6,29.77,NW,313,9.0,15.0,75,0.00,,,0.00,Wunderground v.1.15,2013-01-19 17:00:00,
2013-01-19 11:10:00,36.8,29.6,29.77,NNW,339,11.0,11.0,75,0.00,,,0.00,Wunderground v.1.15,2013-01-19 17:10:00,
2013-01-19 11:20:00,37.0,29.5,29.77,NW,304,9.0,9.0,74,0.00,,,0.00,Wunderground v.1.15,2013-01-19 17:20:00,
2013-01-19 11:25:00,37.2,29.7,29.77,WNW,284,9.0,15.0,74,0.00,,,0.00,Wunderground v.1.15,2013-01-19 17:25:00,
2013-01-19 11:30:00,37.2,29.7,29.77,NW,316,10.0,15.0,74,0.00,,,0.00,Wunderground v.1.15,2013-01-19 17:30:00,
2013-01-19 11:40:00,37.2,29.3,29.77,NW,309,10.0,10.0,73,0.00,,,0.00,Wunderground v.1.15,2013-01-19 17:40:00,
2013-01-19 11:50:00,37.0,29.5,29.76,NW,309,10.0,13.0,74,0.00,,,0.00,Wunderground v.1.15,2013-01-19 17:50:00,
2013-01-19 12:00:00,37.0,29.8,29.75,NNW,329,7.0,10.0,75,0.00,,,0.00,Wunderground v.1.15,2013-01-19 18:00:00,
2013-01-19 12:15:00,36.6,29.4,29.76,NW,313,8.0,9.0,75,0.00,,,0.00,Wunderground v.1.15,2013-01-19 18:15:00,
2013-01-19 12:20:00,36.5,29.7,29.76,WNW,298,9.0,14.0,76,0.00,,,0.00,Wunderground v.1.15,2013-01-19 18:20:00,
2013-01-19 12:25:00,36.2,29.7,29.76,NW,305,11.0,14.0,77,0.00,,,0.00,Wunderground v.1.15,2013-01-19 18:25:00,
2013-01-19 12:35:00,33.2,27.1,29.77,NNW,343,15.0,20.0,78,0.00,,,0.01,Wunderground v.1.15,2013-01-19 18:35:00,
2013-01-19 12:45:00,28.4,23.6,29.82,North,350,20.0,22.0,82,0.00,,,0.01,Wunderground v.1.15,2013-01-19 18:45:00,
2013-01-19 12:55:00,26.6,21.0,29.82,NW,323,21.0,25.0,79,0.00,,,0.01,Wunderground v.1.15,2013-01-19 18:55:00,
2013-01-19 13:00:00,25.7,19.8,29.83,NNW,332,21.0,21.0,78,0.00,,,0.01,Wunderground v.1.15,2013-01-19 19:00:00,
2013-01-19 13:10:00,22.9,13.9,29.83,NW,313,20.0,20.0,68,0.00,,,0.01,Wunderground v.1.15,2013-01-19 19:10:00,
2013-01-19 13:25:00,21.0,11.1,29.86,NNW,340,19.0,20.0,65,0.00,,,0.01,Wunderground v.1.15,2013-01-19 19:25:00,
2013-01-19 13:35:00,20.3,11.4,29.88,North,352,20.0,20.0,68,0.00,,,0.01,Wunderground v.1.15,2013-01-19 19:35:00,
2013-01-19 13:45:00,18.9,9.7,29.89,NNW,343,20.0,20.0,67,0.00,,,0.01,Wunderground v.1.15,2013-01-19 19:45:00,
2013-01-19 13:55:00,17.7,8.6,29.89,NNW,342,19.0,22.0,67,0.00,,,0.01,Wunderground v.1.15,2013-01-19 19:55:00,
2013-01-19 14:05:00,16.2,5.8,29.91,NNW,337,20.0,23.0,63,0.00,,,0.01,Wunderground v.1.15,2013-01-19 20:05:00,
2013-01-19 14:10:00,15.9,6.5,29.91,NNW,343,17.0,17.0,66,0.00,,,0.01,Wunderground v.1.15,2013-01-19 20:10:00,
2013-01-19 14:20:00,14.6,5.6,29.93,NNW,339,19.0,23.0,67,0.00,,,0.01,Wunderground v.1.15,2013-01-19 20:20:00,
2013-01-19 14:30:00,14.4,4.4,29.94,North,349,16.0,16.0,64,0.00,,,0.01,Wunderground v.1.15,2013-01-19 20:30:00,
2013-01-19 14:40:00,14.3,4.7,29.94,NNW,346,21.0,21.0,65,0.00,,,0.01,Wunderground v.1.15,2013-01-19 20:40:00,
2013-01-19 14:50:00,14.9,4.6,29.94,North,354,17.0,17.0,63,0.00,,,0.01,Wunderground v.1.15,2013-01-19 20:50:00,
2013-01-19 15:05:00,14.6,3.9,29.95,WNW,294,23.0,28.0,62,0.00,,,0.01,Wunderground v.1.15,2013-01-19 21:05:00,
2013-01-19 15:15:00,13.6,3.0,29.97,North,0,20.0,23.0,62,0.00,,,0.01,Wunderground v.1.15,2013-01-19 21:15:00,
2013-01-19 15:25:00,12.4,1.8,29.97,NNE,20,20.0,21.0,62,0.00,,,0.01,Wunderground v.1.15,2013-01-19 21:25:00,
2013-01-19 15:45:00,11.6,-0.7,30.00,NNW,344,21.0,26.0,57,0.00,,,0.01,Wunderground v.1.15,2013-01-19 21:45:00,
2013-01-19 16:00:00,10.5,-1.4,30.02,North,0,20.0,21.0,58,0.00,,,0.01,Wunderground v.1.15,2013-01-19 22:00:00,
2013-01-19 16:05:00,9.9,-0.9,30.02,NW,325,22.0,22.0,61,0.00,,,0.01,Wunderground v.1.15,2013-01-19 22:05:00,
2013-01-19 16:15:00,9.7,-0.4,30.04,North,350,19.0,21.0,63,0.00,,,0.01,Wunderground v.1.15,2013-01-19 22:15:00,
2013-01-19 16:20:00,9.5,-0.6,30.04,WNW,298,18.0,18.0,63,0.00,,,0.01,Wunderground v.1.15,2013-01-19 22:20:00,
2013-01-19 16:30:00,8.4,-2.3,30.06,NW,315,17.0,17.0,61,0.00,,,0.01,Wunderground v.1.15,2013-01-19 22:30:00,
2013-01-19 16:40:00,7.9,-3.8,30.06,North,0,16.0,23.0,58,0.00,,,0.01,Wunderground v.1.15,2013-01-19 22:40:00,
2013-01-19 16:50:00,7.2,-3.4,30.07,NW,305,18.0,18.0,61,0.00,,,0.01,Wunderground v.1.15,2013-01-19 22:50:00,
2013-01-19 17:00:00,6.9,-2.7,30.09,NW,319,16.0,17.0,64,0.00,,,0.01,Wunderground v.1.15,2013-01-19 23:00:00,
2013-01-19 17:10:00,6.3,-4.3,30.09,NNW,347,22.0,22.0,61,0.00,,,0.01,Wunderground v.1.15,2013-01-19 23:10:00,
2013-01-19 17:20:00,5.6,-4.0,30.11,North,350,16.0,20.0,64,0.00,,,0.01,Wunderground v.1.15,2013-01-19 23:20:00,
2013-01-19 17:25:00,5.4,-3.2,30.11,NNW,343,18.0,21.0,67,0.00,,,0.01,Wunderground v.1.15,2013-01-19 23:25:00,
2013-01-19 17:30:00,5.2,-2.8,30.13,North,356,17.0,17.0,69,0.00,,,0.01,Wunderground v.1.15,2013-01-19 23:30:00,
2013-01-19 17:40:00,4.7,-5.1,30.13,North,350,18.0,18.0,63,0.00,,,0.01,Wunderground v.1.15,2013-01-19 23:40:00,
2013-01-19 17:45:00,4.5,-5.3,30.13,NNW,333,16.0,18.0,63,0.00,,,0.01,Wunderground v.1.15,2013-01-19 23:45:00,
2013-01-19 17:55:00,4.1,-5.7,30.13,NW,319,15.0,15.0,63,0.00,,,0.01,Wunderground v.1.15,2013-01-19 23:55:00,
2013-01-19 18:05:00,3.7,-5.1,30.15,NNW,343,14.0,14.0,66,0.00,,,0.01,Wunderground v.1.15,2013-01-20 00:05:00,
2013-01-19 18:15:00,3.4,-4.5,30.16,NNW,335,12.0,16.0,69,0.00,,,0.01,Wunderground v.1.15,2013-01-20 00:15:00,
2013-01-19 18:20:00,3.2,-5.0,30.16,NW,308,14.0,22.0,68,0.00,,,0.01,Wunderground v.1.15,2013-01-20 00:20:00,
2013-01-19 18:30:00,2.4,-6.7,30.18,WNW,301,11.0,11.0,65,0.00,,,0.01,Wunderground v.1.15,2013-01-20 00:30:00,
2013-01-19 18:40:00,1.8,-7.6,30.18,NNW,343,12.0,16.0,64,0.00,,,0.01,Wunderground v.1.15,2013-01-20 00:40:00,
2013-01-19 18:50:00,1.7,-7.7,30.19,North,349,13.0,14.0,64,0.00,,,0.01,Wunderground v.1.15,2013-01-20 00:50:00,
2013-01-19 19:00:00,1.3,-7.7,30.20,NNW,347,12.0,13.0,65,0.00,,,0.01,Wunderground v.1.15,2013-01-20 01:00:00,
2013-01-19 19:10:00,1.1,-7.3,30.20,NNW,337,12.0,12.0,67,0.00,,,0.01,Wunderground v.1.15,2013-01-20 01:10:00,
2013-01-19 19:25:00,0.7,-6.5,30.20,NNW,328,12.0,12.0,71,0.00,,,0.01,Wunderground v.1.15,2013-01-20 01:25:00,
2013-01-19 19:30:00,0.7,-7.1,30.21,NNW,335,12.0,12.0,69,0.00,,,0.01,Wunderground v.1.15,2013-01-20 01:30:00,
2013-01-19 19:40:00,0.3,-8.1,30.21,NW,306,12.0,12.0,67,0.00,,,0.01,Wunderground v.1.15,2013-01-20 01:40:00,
2013-01-19 19:50:00,0.1,-8.3,30.22,NNW,337,9.0,11.0,67,0.00,,,0.01,Wunderground v.1.15,2013-01-20 01:50:00,
2013-01-19 19:55:00,0.1,-8.3,30.22,NW,313,10.0,11.0,67,0.00,,,0.01,Wunderground v.1.15,2013-01-20 01:55:00,
2013-01-19 20:05:00,0.1,-8.3,30.23,NW,320,10.0,10.0,67,0.00,,,0.01,Wunderground v.1.15,2013-01-20 02:05:00,
2013-01-19 20:10:00,0.0,-8.1,30.23,North,356,9.0,9.0,68,0.00,,,0.01,Wunderground v.1.15,2013-01-20 02:10:00,
2013-01-19 20:20:00,0.0,-7.5,30.24,NNW,343,9.0,13.0,70,0.00,,,0.01,Wunderground v.1.15,2013-01-20 02:20:00,
2013-01-19 20:25:00,0.0,-7.5,30.24,NW,315,10.0,13.0,70,0.00,,,0.01,Wunderground v.1.15,2013-01-20 02:25:00,
2013-01-19 20:30:00,-0.2,-7.4,30.25,NW,305,10.0,11.0,71,0.00,,,0.01,Wunderground v.1.15,2013-01-20 02:30:00,
2013-01-19 20:40:00,-0.2,-7.7,30.25,NNW,336,9.0,9.0,70,0.00,,,0.01,Wunderground v.1.15,2013-01-20 02:40:00,
2013-01-19 20:50:00,-0.2,-8.0,30.25,NNW,342,8.0,10.0,69,0.00,,,0.01,Wunderground v.1.15,2013-01-20 02:50:00,
2013-01-19 21:00:00,-0.2,-7.7,30.26,NW,316,8.0,9.0,70,0.00,,,0.01,Wunderground v.1.15,2013-01-20 03:00:00,
2013-01-19 21:10:00,-0.4,-7.6,30.26,NW,306,8.0,8.0,71,0.00,,,0.01,Wunderground v.1.15,2013-01-20 03:10:00,
2013-01-19 21:20:00,-0.6,-7.5,30.27,NNW,333,9.0,9.0,72,0.00,,,0.01,Wunderground v.1.15,2013-01-20 03:20:00,
2013-01-19 21:30:00,-0.6,-7.2,30.27,NNW,343,10.0,14.0,73,0.00,,,0.01,Wunderground v.1.15,2013-01-20 03:30:00,
2013-01-19 21:40:00,-0.8,-7.7,30.27,North,353,10.0,15.0,72,0.00,,,0.01,Wunderground v.1.15,2013-01-20 03:40:00,
2013-01-19 21:50:00,-1.0,-8.1,30.27,NNW,332,10.0,13.0,71,0.00,,,0.01,Wunderground v.1.15,2013-01-20 03:50:00,
2013-01-19 22:00:00,-1.0,-7.9,30.27,NNW,340,10.0,13.0,72,0.00,,,0.01,Wunderground v.1.15,2013-01-20 04:00:00,
2013-01-19 22:10:00,-1.0,-8.1,30.27,NNW,335,10.0,10.0,71,0.00,,,0.01,Wunderground v.1.15,2013-01-20 04:10:00,
2013-01-19 22:20:00,-1.2,-8.3,30.26,NW,325,7.0,7.0,71,0.00,,,0.01,Wunderground v.1.15,2013-01-20 04:20:00,
2013-01-19 22:30:00,-1.4,-8.2,30.26,North,356,6.0,6.0,72,0.00,,,0.01,Wunderground v.1.15,2013-01-20 04:30:00,
2013-01-19 22:40:00,-1.8,-8.3,30.26,NW,319,5.0,7.0,73,0.00,,,0.01,Wunderground v.1.15,2013-01-20 04:40:00,
2013-01-19 22:45:00,-1.8,-8.3,30.28,NNW,328,5.0,7.0,73,0.00,,,0.01,Wunderground v.1.15,2013-01-20 04:45:00,
2013-01-19 22:55:00,-1.8,-8.3,30.28,NNW,337,7.0,7.0,73,0.00,,,0.01,Wunderground v.1.15,2013-01-20 04:55:00,
2013-01-19 23:00:00,-1.8,-8.6,30.30,NW,305,7.0,11.0,72,0.00,,,0.01,Wunderground v.1.15,2013-01-20 05:00:00,
2013-01-19 23:10:00,-1.8,-8.6,30.30,NW,322,8.0,9.0,72,0.00,,,0.01,Wunderground v.1.15,2013-01-20 05:10:00,
2013-01-19 23:15:00,-1.8,-8.6,30.31,NNW,333,7.0,9.0,72,0.00,,,0.01,Wunderground v.1.15,2013-01-20 05:15:00,
2013-01-19 23:25:00,-2.0,-8.8,30.31,NW,322,7.0,9.0,72,0.00,,,0.01,Wunderground v.1.15,2013-01-20 05:25:00,
2013-01-19 23:30:00,-2.0,-8.8,30.30,NNW,339,7.0,10.0,72,0.00,,,0.01,Wunderground v.1.15,2013-01-20 05:30:00,
2013-01-19 23:40:00,-2.2,-9.0,30.30,NNW,333,6.0,8.0,72,0.00,,,0.01,Wunderground v.1.15,2013-01-20 05:40:00,
2013-01-19 23:50:00,-2.4,-9.2,30.30,NW,322,8.0,8.0,72,0.00,,,0.01,Wunderground v.1.15,2013-01-20 05:50:00,